{"data":{"norad_id":58972,"intl_designator":"2024-031H","name":"STARLINK-31351","alt_names":[],"object_type":"PAYLOAD","status":"ACTIVE","operator":null,"country":"US","launch_date":"2024-02-15","launch_site_code":"AFWTR","launch_vehicle":null,"mission":null,"orbit_class":"UNKNOWN","rcs_meters":null,"size_class":null,"mass_kg":null,"dimensions":null,"purposes":["comms"],"wikipedia_slug":null,"has_3d_model":false,"image_url":null,"decayed_at":null,"tle_current":{"epoch":"2026-05-25T04:04:25.080672Z","epoch_age_seconds":57438,"freshness":"FRESH","line1":"1 58972U 24031H   26145.16973473  .00000951  00000+0  44229-4 0  9998","line2":"2 58972  53.1617 301.3775 0001331  85.4192 274.6961 15.30195822128236","mean_motion":15.30195822,"eccentricity":0.0001331,"inclination_deg":53.1617,"raan_deg":301.3775,"arg_perigee_deg":85.4192,"mean_anomaly_deg":274.6961,"bstar":4.4229e-5,"rev_number":12823,"period_min":94.105602648809,"perigee_km":474.31536138179,"apogee_km":476.13972702345,"semimajor_km":6853.3645442026,"source":"CELESTRAK","updated_at":"2026-05-25T13:38:18.794602Z"}}}